Location: Walnut Point State Park
(39.6958°N, 88.0345°W)
Time: 13:56:42
(UTC-05:00)

Amateur Radio Satellites - All Passes

Search period start: 27 September 2016 13:26
Search period end: 28 September 2016 13:26
Location: Walnut Point State Park, 39.6958°N, 88.0345°W

Satellite Date Start Highest point End Downlink Frequencies (MHz)
Time Altitude Azimuth
AIST 2 27 Sep 13:27:31 13:31:37 55° 243° (WSW) 13:35:43 435.215
PHONESAT 2.4 27 Sep 13:30:35 13:33:31 72° 358° (N) 13:36:29 2401.200-2431.200
SPROUT 27 Sep 13:32:06 13:36:18 61° 285° (WNW) 13:40:29 437.525
M-CUBED/EXP-1 PRIME 27 Sep 13:34:15 13:37:25 49° 291° (WNW) 13:40:35 437.505
AISAT 27 Sep 13:35:34 13:39:26 31° 291° (WNW) 13:43:17 437.250
UKube-1 27 Sep 13:45:04 13:49:17 52° 287° (WNW) 13:53:27 .
50 SAT 27 Sep 13:45:41 13:48:19 19° 292° (WNW) 13:50:56 437.505
Oscar 19 27 Sep 14:01:38 14:06:37 47° 261° (W) 14:11:39 437.125/150
PCSat 27 Sep 14:02:59 14:08:27 80° 61° (ENE) 14:13:51 145.827
DX 1 27 Sep 14:13:25 14:16:40 21° 293° (WNW) 14:19:55 434.975-435.025
VELOX 1 27 Sep 14:21:03 14:22:47 12° 298° (WNW) 14:24:29 145.980
SO-50 27 Sep 14:21:49 14:24:42 16° 109° (ESE) 14:27:35 436.795
AUBIESAT-1 27 Sep 14:33:21 14:34:39 12° 299° (WNW) 14:35:58 437.475
Cosmos 2504 27 Sep 14:37:07 14:43:44 33° 73° (ENE) 14:50:41 435.465 / 435.565
ITAMSAT 1 27 Sep 14:53:21 14:58:29 71° 74° (ENE) 15:03:39 435.822/435.867
TISAT 1 27 Sep 14:54:37 14:58:28 37° 288° (WNW) 15:02:17 437.305
Gurwin Techsat 1B 27 Sep 14:55:44 15:00:26 32° 264° (W) 15:05:10 435.225
ITUPSAT 1 27 Sep 14:57:19 15:01:48 37° 98° (E) 15:06:15 437.325
AO-7 27 Sep 15:02:50 15:10:55 58° 66° (ENE) 15:19:00 29.400- 29.500
PHONESAT 2.4 27 Sep 15:06:44 15:09:40 62° 196° (SSW) 15:12:36 2401.200-2431.200
SWISSCUBE 27 Sep 15:10:30 15:15:16 59° 101° (ESE) 15:20:00 437.505
Cosmos 2491 27 Sep 15:13:28 15:22:13 79° 95° (E) 15:31:05 435.465 / 435.565
MOZHAYETS 4 27 Sep 15:19:56 15:20:53 11° 89° (E) 15:21:50
YUBILEINY 27 Sep 15:20:22 15:28:45 54° 270° (W) 15:37:05 435.215
BEESAT 27 Sep 15:23:31 15:28:19 73° 103° (ESE) 15:33:06 436.000
KKS-1 27 Sep 15:47:51 15:49:48 13° 91° (E) 15:51:44 437.445
PCSat 27 Sep 15:48:49 15:51:05 13° 258° (WSW) 15:53:20 145.827
AIST 1 27 Sep 15:52:39 15:56:00 22° 74° (ENE) 15:59:18
SO-50 27 Sep 15:59:56 16:04:43 60° 305° (NW) 16:09:27 436.795
BRITE-PL 27 Sep 16:00:46 16:02:30 11° 60° (ENE) 16:04:14 437.365/2234.400
HORYU 2 27 Sep 16:05:08 16:07:49 16° 64° (ENE) 16:10:30 437.375
O/OREOS (USA 219) 27 Sep 16:05:20 16:07:27 13° 53° (NE) 16:09:35 437.305
STARS 27 Sep 16:22:22 16:24:45 14° 92° (E) 16:27:07 437.465
Cosmos 2504 27 Sep 16:30:12 16:37:10 45° 270° (W) 16:44:35 435.465 / 435.565
ITUPSAT 1 27 Sep 16:35:38 16:39:23 23° 294° (WNW) 16:43:07 437.325
ITAMSAT 1 27 Sep 16:36:07 16:38:27 13° 270° (W) 16:40:47 435.822/435.867
NOAA 15 27 Sep 16:38:24 16:40:19 12° 59° (ENE) 16:42:15 137.62
PHONESAT 2.4 27 Sep 16:43:39 16:45:25 15° 211° (SSW) 16:47:12 2401.200-2431.200
SWISSCUBE 27 Sep 16:49:47 16:52:32 15° 297° (WNW) 16:55:17 437.505
Cubesat XI-IV 27 Sep 16:52:32 16:54:53 13° 59° (ENE) 16:57:14 437.490
CUTE-I 27 Sep 16:52:45 16:55:10 13° 60° (ENE) 16:57:35 437.470
MOZHAYETS 4 27 Sep 16:53:52 16:58:31 72° 285° (WNW) 17:03:08
AO-7 27 Sep 16:56:56 17:04:01 30° 264° (W) 17:11:07 29.400- 29.500
BEESAT 27 Sep 17:03:26 17:05:28 13° 299° (WNW) 17:07:30 436.000
LilacSat-2 27 Sep 17:09:43 17:10:52 11° 65° (ENE) 17:12:00 437.200
Cosmos 2491 27 Sep 17:13:41 17:20:04 22° 295° (WNW) 17:26:32 435.465 / 435.565
KKS-1 27 Sep 17:22:21 17:26:41 55° 287° (WNW) 17:31:00 437.445
GOMX 1 27 Sep 17:27:02 17:31:41 31° 69° (ENE) 17:36:11 467.674
NOAA 18 27 Sep 17:28:16 17:32:34 24° 64° (ENE) 17:36:51 137.9125
AIST 1 27 Sep 17:29:55 17:33:33 28° 271° (W) 17:37:12
BRITE-PL 27 Sep 17:34:23 17:40:04 78° 76° (ENE) 17:45:42 437.365/2234.400
HORYU 2 27 Sep 17:39:44 17:43:58 47° 260° (W) 17:48:15 437.375
O/OREOS (USA 219) 27 Sep 17:42:48 17:47:24 71° 251° (WSW) 17:51:56 437.305
SO-50 27 Sep 17:45:08 17:46:09 11° 324° (NW) 17:47:11 436.795
DOVE 4 27 Sep 17:51:22 17:55:09 22° 68° (ENE) 17:58:48 437.250
STARS 27 Sep 17:57:09 18:01:21 48° 288° (WNW) 18:05:32 437.465
CUSAT 1 27 Sep 17:58:22 18:02:00 16° 78° (ENE) 18:05:58 437.405
CUBESAT XI-V 27 Sep 18:12:32 18:17:15 81° 284° (WNW) 18:21:55 437.345
NOAA 15 27 Sep 18:13:59 18:19:17 90° 80° (E) 18:24:39 137.62
HO-68 27 Sep 18:25:46 18:30:57 22° 58° (ENE) 18:36:07 435.675
Cubesat XI-IV 27 Sep 18:28:54 18:34:13 83° 256° (WSW) 18:39:34 437.490
CUTE-I 27 Sep 18:29:11 18:34:29 82° 257° (WSW) 18:39:50 437.470
LilacSat-2 27 Sep 18:41:04 18:44:43 49° 261° (W) 18:48:23 437.200
GOMX 1 27 Sep 19:04:47 19:09:38 33° 264° (W) 19:14:21 467.674
CINEMA 3 27 Sep 19:05:36 19:09:31 30° 71° (ENE) 19:13:17 145.822/145.860
NOAA 18 27 Sep 19:07:43 19:12:55 45° 260° (W) 19:18:09 137.9125
STRAND 1 27 Sep 19:07:55 19:11:20 18° 92° (E) 19:14:43 437.568
RS-15 27 Sep 19:09:22 19:19:34 39° 106° (ESE) 19:30:12 29.354- 29.394
BRITE-PL 27 Sep 19:16:10 19:19:01 14° 271° (W) 19:21:52 437.365/2234.400
DANDE 27 Sep 19:24:16 19:28:32 27° 84° (E) 19:33:50 436.750
CUTE 1.7 + AOD 2 27 Sep 19:27:31 19:31:23 36° 72° (ENE) 19:35:17 437.475
DOVE 4 27 Sep 19:27:51 19:32:36 40° 262° (W) 19:37:09 437.250
CANX-2 27 Sep 19:28:33 19:32:33 43° 73° (ENE) 19:36:36 2200.000
SEEDS 27 Sep 19:29:56 19:33:27 27° 70° (ENE) 19:37:00 437.485
CUSAT 1 27 Sep 19:36:32 19:42:38 85° 279° (W) 19:50:14 437.405
Cosmos 2499 27 Sep 19:41:06 19:48:19 46° 77° (ENE) 19:56:03 435.465 / 435.565
GONETS M04 27 Sep 19:42:09 19:50:48 56° 77° (ENE) 19:59:20
AAUSAT CUBESAT 2 27 Sep 19:53:26 19:56:52 26° 69° (ENE) 20:00:21 437.432
AO-85 27 Sep 20:02:24 20:05:30 16° 109° (ESE) 20:08:32 145.980
HO-68 27 Sep 20:10:47 20:17:56 74° 256° (WSW) 20:25:08 435.675
CUBEBUG 2 27 Sep 20:14:49 20:18:49 44° 73° (ENE) 20:22:47 437.445
FUNcube-1 27 Sep 20:22:32 20:25:34 20° 68° (ENE) 20:28:37 145.935
ISS 27 Sep 20:31:48 20:35:02 70° 140° (SE) 20:38:17 145.825
UWE-3 27 Sep 20:33:27 20:37:26 46° 73° (ENE) 20:41:25 435.000/436.395/437.385
COMPASS 1 27 Sep 20:36:37 20:40:46 76° 257° (WSW) 20:44:59 437.405
CINEMA 3 27 Sep 20:43:05 20:46:38 23° 265° (W) 20:50:07 145.822/145.860
STRAND 1 27 Sep 20:45:47 20:50:48 53° 288° (WNW) 20:55:47 437.568
Oscar 11 27 Sep 21:01:28 21:05:42 61° 74° (ENE) 21:09:58 145.826/435.025
ZACube-1 27 Sep 21:03:12 21:07:17 64° 76° (ENE) 21:11:24 437.345
CUTE 1.7 + AOD 2 27 Sep 21:04:27 21:07:19 18° 267° (W) 21:10:14 437.475
SEEDS 27 Sep 21:05:40 21:09:05 24° 265° (W) 21:12:32 437.485
DANDE 27 Sep 21:06:09 21:10:56 38° 290° (WNW) 21:17:09 436.750
CANX-2 27 Sep 21:06:10 21:08:36 15° 268° (W) 21:11:04 2200.000
DELFI C3 27 Sep 21:15:15 21:18:49 32° 71° (ENE) 21:22:24 145.870
RS-15 27 Sep 21:19:51 21:31:22 64° 308° (NW) 21:43:33 29.354- 29.394
PRISM 27 Sep 21:20:12 21:24:00 34° 98° (E) 21:27:45 437.425
CUSAT 1 27 Sep 21:22:09 21:26:03 16° 302° (WNW) 21:30:21 437.405
HUMSAT D 27 Sep 21:26:27 21:29:33 21° 68° (ENE) 21:32:42 437.325/437.525
AAUSAT CUBESAT 2 27 Sep 21:28:53 21:32:17 24° 265° (W) 21:35:42 437.432
Cosmos 2499 27 Sep 21:34:36 21:41:11 34° 273° (W) 21:48:13 435.465 / 435.565
GONETS M04 27 Sep 21:39:46 21:47:05 31° 277° (W) 21:54:21
AO-85 27 Sep 21:40:21 21:45:33 66° 304° (WNW) 21:50:25 145.980
CUBEBUG 2 27 Sep 21:53:28 21:55:39 14° 268° (W) 21:57:51 437.445
FUNcube-1 27 Sep 21:57:58 22:01:37 30° 263° (W) 22:05:18 145.935
HO-68 27 Sep 22:05:11 22:06:44 11° 273° (W) 22:08:19 435.675
ESTCUBE 1 27 Sep 22:06:08 22:07:09 11° 61° (ENE) 22:08:10 437.505/2401.250
ISS 27 Sep 22:09:21 22:11:48 19° 338° (NNW) 22:14:16 145.825
UWE-3 27 Sep 22:12:12 22:14:09 13° 269° (W) 22:16:05 435.000/436.395/437.385
ANTELSAT 27 Sep 22:18:24 22:21:46 21° 95° (E) 22:25:10 437.575/2403.000
TIGRISAT 27 Sep 22:38:29 22:42:28 32° 97° (E) 22:46:30 435.000
Oscar 11 27 Sep 22:41:04 22:42:13 11° 270° (W) 22:43:21 145.826/435.025
M-CUBED/EXP-1 PRIME 27 Sep 22:47:00 22:49:03 14° 62° (ENE) 22:51:02 437.505
50 SAT 27 Sep 22:49:52 22:50:49 11° 65° (ENE) 22:51:45 437.505
DELFI C3 27 Sep 22:50:56 22:53:42 18° 267° (W) 22:56:29 145.870
SO-50 27 Sep 22:53:16 22:55:42 14° 40° (NE) 22:58:07 436.795
PRISM 27 Sep 22:56:10 22:59:02 18° 294° (WNW) 23:01:53 437.425
AISAT 27 Sep 22:56:24 22:59:34 19° 66° (ENE) 23:02:43 437.250
HUMSAT D 27 Sep 23:01:29 23:05:01 28° 264° (W) 23:08:35 437.325/437.525
UKube-1 27 Sep 23:06:03 23:07:08 11° 62° (ENE) 23:08:13 .
UNISAT 6 27 Sep 23:18:46 23:23:11 82° 284° (WNW) 23:27:42 437.425
AO-85 27 Sep 23:25:04 23:26:49 12° 321° (NW) 23:28:32 145.980
NANOSAT C BR1 27 Sep 23:29:37 23:31:54 14° 92° (E) 23:34:12 145.865
DX 1 27 Sep 23:31:33 23:35:14 27° 68° (ENE) 23:38:54 434.975-435.025
RS-15 27 Sep 23:37:40 23:47:03 25° 338° (NNW) 23:56:43 29.354- 29.394
VELOX 1 27 Sep 23:38:39 23:42:57 51° 73° (ENE) 23:47:17 145.980
ESTCUBE 1 27 Sep 23:38:46 23:43:16 78° 256° (WSW) 23:47:51 437.505/2401.250
AUBIESAT-1 27 Sep 23:42:02 23:45:55 45° 69° (ENE) 23:49:34 437.475
CUBEBUG 1 27 Sep 23:42:59 23:47:24 74° 76° (ENE) 23:51:48 437.445
ISS 27 Sep 23:48:41 23:49:19 10° 358° (N) 23:49:58 145.825
JAS-2 27 Sep 23:49:56 23:56:45 31° 93° (E) 00:03:13 435.910
QB50P2 27 Sep 23:51:47 23:55:30 29° 97° (E) 23:59:13 145.880/145.840
POLYITAN 1 27 Sep 23:54:00 23:57:43 29° 97° (E) 00:01:25 437.675
ANTELSAT 27 Sep 23:54:32 23:58:31 34° 289° (WNW) 00:02:34 437.575/2403.000
BEESAT 3 28 Sep 00:07:29 00:09:46 15° 110° (ESE) 00:12:04 437.485
TISAT 1 28 Sep 00:12:03 00:13:46 12° 64° (ENE) 00:15:28 437.305
TIGRISAT 28 Sep 00:15:34 00:18:58 22° 292° (WNW) 00:22:25 435.000
M-CUBED/EXP-1 PRIME 28 Sep 00:19:10 00:23:16 50° 255° (WSW) 00:27:04 437.505
50 SAT 28 Sep 00:20:21 00:23:51 47° 261° (W) 00:27:24 437.505
SPROUT 28 Sep 00:24:16 00:28:33 88° 70° (ENE) 00:32:50 437.525
AISAT 28 Sep 00:31:34 00:35:44 39° 262° (W) 00:39:55 437.250
DUCHIFAT 1 28 Sep 00:31:44 00:35:55 71° 101° (ESE) 00:40:05 145.980
SO-50 28 Sep 00:32:14 00:36:49 85° 240° (WSW) 00:41:17 436.795
QB50P1 28 Sep 00:33:47 00:38:00 87° 101° (ESE) 00:42:13 145.935-145.965
BUGSAT 1 28 Sep 00:34:46 00:38:16 28° 97° (E) 00:41:46 437.445
UKube-1 28 Sep 00:38:15 00:42:34 71° 258° (WSW) 00:46:53 .
POPSAT HIP 1 28 Sep 00:47:21 00:51:31 66° 285° (WNW) 00:55:42 437.405
BEESAT 2 28 Sep 01:01:35 01:05:02 30° 114° (ESE) 01:08:30 435.950
NANOSAT C BR1 28 Sep 01:03:51 01:07:51 44° 287° (WNW) 01:11:51 145.865
DX 1 28 Sep 01:07:41 01:11:20 26° 264° (W) 01:15:01 434.975-435.025
VELOX 1 28 Sep 01:17:20 01:19:41 14° 268° (W) 01:22:03 145.980
AUBIESAT-1 28 Sep 01:18:28 01:20:28 13° 261° (W) 01:22:26 437.475
ISS 28 Sep 01:24:46 01:26:54 16° 19° (NNE) 01:29:03 145.825
Cosmos 2491 28 Sep 01:25:16 01:33:23 38° 72° (ENE) 01:41:23 435.465 / 435.565
QB50P2 28 Sep 01:27:53 01:31:08 22° 292° (WNW) 01:34:24 145.880/145.840
POLYITAN 1 28 Sep 01:30:05 01:33:21 22° 292° (WNW) 01:36:36 437.675
JAS-2 28 Sep 01:34:21 01:41:59 55° 291° (WNW) 01:49:14 435.910
Gurwin Techsat 1B 28 Sep 01:34:40 01:36:47 12° 90° (E) 01:38:54 435.225
BEESAT 3 28 Sep 01:43:20 01:47:03 42° 306° (NW) 01:50:49 437.485
TISAT 1 28 Sep 01:44:47 01:48:55 57° 259° (W) 01:53:03 437.305
RS-15 28 Sep 01:56:42 02:05:41 22° 14° (NNE) 02:14:43 29.354- 29.394
ITUPSAT 1 28 Sep 02:03:11 02:07:36 40° 71° (ENE) 02:12:03 437.325
BUGSAT 1 28 Sep 02:10:28 02:13:29 21° 292° (WNW) 02:16:30 437.445
Oscar 19 28 Sep 02:13:46 02:18:54 65° 101° (ESE) 02:23:59 437.125/150
SWISSCUBE 28 Sep 02:15:57 02:20:38 62° 73° (ENE) 02:25:21 437.505
YUBILEINY 28 Sep 02:24:01 02:31:50 38° 86° (E) 02:39:36 435.215
BEESAT 28 Sep 02:28:52 02:33:36 76° 75° (ENE) 02:38:22 436.000
BEESAT 2 28 Sep 02:39:36 02:42:50 24° 311° (NW) 02:46:07 435.950
KKS-1 28 Sep 02:45:59 02:47:35 12° 62° (ENE) 02:49:11 437.445
ISS 28 Sep 03:00:34 03:03:52 74° 38° (NE) 03:07:08 145.825
PCSat 28 Sep 03:05:23 03:06:21 10° 101° (ESE) 03:07:20 145.827
AO-7 28 Sep 03:07:03 03:12:18 18° 91° (E) 03:17:31 29.400- 29.500
ITAMSAT 1 28 Sep 03:07:31 03:11:52 26° 95° (E) 03:16:13 435.822/435.867
Gurwin Techsat 1B 28 Sep 03:11:57 03:17:17 77° 285° (WNW) 03:22:35 435.225
Cosmos 2504 28 Sep 03:15:58 03:21:54 27° 85° (E) 03:27:39 435.465 / 435.565
STARS 28 Sep 03:19:06 03:20:59 13° 63° (ENE) 03:22:54 437.465
Cosmos 2491 28 Sep 03:22:01 03:30:18 46° 272° (W) 03:38:31 435.465 / 435.565
JAS-2 28 Sep 03:23:05 03:25:14 11° 310° (NW) 03:27:23 435.910
AIST 2 28 Sep 03:24:09 03:27:54 35° 115° (ESE) 03:31:41 435.215
ITUPSAT 1 28 Sep 03:42:03 03:45:33 20° 266° (W) 03:49:06 437.325
MOZHAYETS 4 28 Sep 03:54:33 03:59:07 84° 256° (WSW) 04:03:44
Oscar 19 28 Sep 03:54:40 03:57:39 16° 298° (WNW) 04:00:38 437.125/150
SWISSCUBE 28 Sep 03:56:38 03:58:49 13° 269° (W) 04:00:59 437.505
RS-15 28 Sep 04:10:26 04:22:22 49° 46° (NE) 04:34:02 29.354- 29.394
BEESAT 28 Sep 04:11:10 04:11:54 10° 271° (W) 04:12:38 436.000
KKS-1 28 Sep 04:19:08 04:23:34 68° 258° (WSW) 04:28:01 437.445
YUBILEINY 28 Sep 04:20:03 04:28:23 46° 285° (WNW) 04:36:45 435.215
AIST 1 28 Sep 04:22:20 04:24:34 14° 85° (E) 04:26:48
CUSAT 1 28 Sep 04:32:43 04:36:20 14° 56° (ENE) 04:39:44 437.405
AO-85 28 Sep 04:35:25 04:36:19 11° 38° (NE) 04:37:12 145.980
ISS 28 Sep 04:38:53 04:39:55 11° 232° (SW) 04:40:57 145.825
PCSat 28 Sep 04:43:28 04:48:53 88° 114° (ESE) 04:54:20 145.827
ITAMSAT 1 28 Sep 04:46:37 04:51:22 36° 291° (WNW) 04:56:07 435.822/435.867
STARS 28 Sep 04:52:29 04:56:49 61° 259° (W) 05:01:10 437.465
AO-7 28 Sep 04:57:38 05:05:59 88° 289° (WNW) 05:14:17 29.400- 29.500
AIST 2 28 Sep 05:03:12 05:06:27 22° 312° (NW) 05:09:45 435.215
Cosmos 2504 28 Sep 05:07:40 05:14:50 50° 282° (WNW) 05:21:48 435.465 / 435.565
CUBESAT XI-V 28 Sep 05:14:32 05:19:14 88° 73° (ENE) 05:23:58 437.345
HORYU 2 28 Sep 05:31:22 05:35:23 33° 98° (E) 05:39:24 437.375
BRITE-PL 28 Sep 05:41:40 05:45:33 25° 93° (E) 05:49:11 437.365/2234.400
AIST 1 28 Sep 05:57:29 06:01:42 46° 281° (W) 06:05:57
DANDE 28 Sep 06:01:55 06:09:13 32° 68° (ENE) 06:16:06 436.750
CUSAT 1 28 Sep 06:12:14 06:20:01 72° 79° (ENE) 06:26:23 437.405
AO-85 28 Sep 06:13:22 06:17:31 84° 59° (ENE) 06:21:24 145.980
LilacSat-2 28 Sep 06:15:50 06:18:28 18° 94° (E) 06:21:07 437.200
O/OREOS (USA 219) 28 Sep 06:17:09 06:19:37 15° 99° (E) 06:22:07 437.305
STRAND 1 28 Sep 06:22:55 06:26:56 24° 66° (ENE) 06:30:58 437.568
RS-15 28 Sep 06:23:16 06:35:07 56° 249° (WSW) 06:46:40 29.354- 29.394
PCSat 28 Sep 06:29:47 06:33:01 16° 317° (NW) 06:36:17 145.827
NOAA 15 28 Sep 06:30:16 06:35:09 36° 98° (E) 06:39:57 137.62
Cubesat XI-IV 28 Sep 06:47:04 06:52:08 42° 99° (E) 06:57:12 437.490
CUTE-I 28 Sep 06:47:08 06:52:13 43° 99° (E) 06:57:18 437.470
AO-7 28 Sep 06:52:05 06:57:38 20° 308° (NW) 07:03:11 29.400- 29.500
GONETS M04 28 Sep 06:53:48 06:55:16 10° 73° (ENE) 06:56:44
GOMX 1 28 Sep 07:07:26 07:11:51 85° 102° (ESE) 07:16:03 467.674
HORYU 2 28 Sep 07:08:17 07:11:44 22° 293° (WNW) 07:15:12 437.375
BRITE-PL 28 Sep 07:19:52 07:24:03 30° 292° (WNW) 07:27:57 437.365/2234.400
DOVE 4 28 Sep 07:27:30 07:31:37 55° 100° (E) 07:35:40 437.250
NOAA 18 28 Sep 07:30:08 07:35:38 82° 104° (ESE) 07:41:07 137.9125
HO-68 28 Sep 07:40:27 07:45:50 22° 93° (E) 07:51:12 435.675
DANDE 28 Sep 07:44:13 07:52:28 60° 267° (W) 08:00:00 436.750
LilacSat-2 28 Sep 07:49:26 07:52:48 29° 289° (WNW) 07:56:10 437.200
O/OREOS (USA 219) 28 Sep 07:54:06 07:58:32 51° 295° (WNW) 08:03:01 437.305
CUSAT 1 28 Sep 07:55:46 08:00:58 21° 280° (W) 08:05:37 437.405
STRAND 1 28 Sep 08:01:06 08:05:51 39° 262° (W) 08:10:39 437.568
PRISM 28 Sep 08:08:59 08:12:19 23° 68° (ENE) 08:15:39 437.425
NOAA 15 28 Sep 08:10:18 08:14:45 28° 294° (WNW) 08:19:10 137.62
Cosmos 2499 28 Sep 08:17:56 08:24:15 35° 87° (E) 08:30:29 435.465 / 435.565
COMPASS 1 28 Sep 08:21:08 08:24:04 18° 93° (E) 08:26:58 437.405
UWE-3 28 Sep 08:26:41 08:26:57 10° 90° (E) 08:27:14 435.000/436.395/437.385
Cubesat XI-IV 28 Sep 08:27:41 08:31:57 25° 295° (WNW) 08:36:13 437.490
CUTE-I 28 Sep 08:27:46 08:32:00 24° 295° (WNW) 08:36:13 437.470
CINEMA 3 28 Sep 08:37:04 08:41:16 85° 107° (ESE) 08:45:32 145.822/145.860
GONETS M04 28 Sep 08:41:31 08:50:13 66° 92° (E) 08:58:58
CUTE 1.7 + AOD 2 28 Sep 08:48:23 08:52:43 83° 105° (ESE) 08:57:00 437.475
SEEDS 28 Sep 08:49:17 08:53:30 57° 100° (E) 08:57:41 437.485
CANX-2 28 Sep 08:49:42 08:54:02 82° 285° (WNW) 08:58:20 2200.000
Oscar 11 28 Sep 08:51:30 08:53:10 12° 90° (E) 08:54:50 145.826/435.025
ZACube-1 28 Sep 08:53:33 08:55:44 14° 92° (E) 08:57:56 437.345
DOVE 4 28 Sep 09:07:16 09:08:49 12° 297° (WNW) 09:10:21 437.250
AAUSAT CUBESAT 2 28 Sep 09:10:57 09:15:04 53° 99° (E) 09:19:08 437.432
NOAA 18 28 Sep 09:12:52 09:15:33 14° 301° (WNW) 09:18:15 137.9125
ANTELSAT 28 Sep 09:17:19 09:20:01 17° 66° (ENE) 09:22:43 437.575/2403.000
BEESAT 2 28 Sep 09:20:29 09:23:10 17° 45° (NE) 09:25:50 435.950
HO-68 28 Sep 09:26:57 09:34:01 65° 290° (WNW) 09:41:04 435.675
DANDE 28 Sep 09:32:01 09:33:27 11° 285° (WNW) 09:34:54 436.750
TIGRISAT 28 Sep 09:36:49 09:40:19 25° 69° (ENE) 09:43:48 435.000
CUBEBUG 2 28 Sep 09:42:11 09:46:27 68° 284° (WNW) 09:50:50 437.445
PRISM 28 Sep 09:43:55 09:47:29 27° 264° (W) 09:51:04 437.425
FUNcube-1 28 Sep 09:45:45 09:49:57 48° 99° (E) 09:54:14 145.935
COMPASS 1 28 Sep 09:55:51 09:59:42 35° 289° (WNW) 10:03:32 437.405
UWE-3 28 Sep 09:59:29 10:03:47 67° 285° (WNW) 10:08:11 435.000/436.395/437.385
BEESAT 3 28 Sep 10:00:50 10:04:50 81° 59° (ENE) 10:08:47 437.485
JAS-2 28 Sep 10:04:30 10:07:14 13° 52° (NE) 10:10:04 435.910
Cosmos 2499 28 Sep 10:10:42 10:17:14 37° 285° (WNW) 10:23:43 435.465 / 435.565
UNISAT 6 28 Sep 10:16:40 10:20:56 78° 78° (ENE) 10:25:12 437.425
NANOSAT C BR1 28 Sep 10:23:00 10:23:37 10° 62° (ENE) 10:24:14 145.865
Oscar 11 28 Sep 10:25:21 10:29:38 57° 286° (WNW) 10:33:54 145.826/435.025
SEEDS 28 Sep 10:26:51 10:28:41 13° 296° (WNW) 10:30:31 437.485
DELFI C3 28 Sep 10:27:41 10:31:39 59° 100° (E) 10:35:36 145.870
ZACube-1 28 Sep 10:28:03 10:32:16 51° 286° (WNW) 10:36:33 437.345
GONETS M04 28 Sep 10:40:33 10:47:41 27° 292° (WNW) 10:54:54
PHONESAT 2.4 28 Sep 10:43:39 10:46:20 33° 157° (SSE) 10:49:01 2401.200-2431.200
QB50P2 28 Sep 10:44:04 10:47:12 21° 68° (ENE) 10:50:21 145.880/145.840
HUMSAT D 28 Sep 10:44:47 10:48:53 45° 99° (E) 10:52:59 437.325/437.525
POLYITAN 1 28 Sep 10:46:17 10:49:25 21° 67° (ENE) 10:52:33 437.675
AAUSAT CUBESAT 2 28 Sep 10:48:06 10:50:04 13° 296° (WNW) 10:52:01 437.432
ANTELSAT 28 Sep 10:52:23 10:56:24 41° 261° (W) 11:00:27 437.575/2403.000
BEESAT 2 28 Sep 10:57:21 11:01:15 48° 243° (WSW) 11:05:05 435.950
TIGRISAT 28 Sep 11:13:23 11:16:55 25° 264° (W) 11:20:29 435.000
HO-68 28 Sep 11:17:49 11:20:23 12° 309° (NW) 11:22:56 435.675
DUCHIFAT 1 28 Sep 11:22:35 11:26:33 45° 73° (ENE) 11:30:33 145.980
FUNcube-1 28 Sep 11:23:18 11:25:49 15° 294° (WNW) 11:28:20 145.935
BUGSAT 1 28 Sep 11:24:15 11:27:08 19° 67° (ENE) 11:30:02 437.445
QB50P1 28 Sep 11:25:05 11:29:12 56° 74° (ENE) 11:33:19 145.935-145.965
ESTCUBE 1 28 Sep 11:32:41 11:36:18 23° 95° (E) 11:39:54 437.505/2401.250
CUBEBUG 1 28 Sep 11:33:58 11:36:17 14° 92° (E) 11:38:35 437.445
POPSAT HIP 1 28 Sep 11:38:34 11:42:46 80° 75° (ENE) 11:46:58 437.405
JAS-2 28 Sep 11:44:19 11:50:42 68° 72° (ENE) 11:57:57 435.910
AIST 2 28 Sep 11:46:19 11:49:34 21° 47° (NE) 11:52:48 435.215
50 SAT 28 Sep 11:50:05 11:51:56 13° 93° (E) 11:53:45 437.505
PCSat 28 Sep 11:51:41 11:53:00 11° 38° (NE) 11:54:18 145.827
NANOSAT C BR1 28 Sep 11:54:35 11:58:45 69° 258° (WSW) 12:02:57 145.865
Oscar 19 28 Sep 11:54:55 11:56:18 11° 59° (ENE) 11:57:42 437.125/150
DELFI C3 28 Sep 12:04:54 12:05:58 11° 296° (WNW) 12:07:01 145.870
SPROUT 28 Sep 12:12:12 12:14:46 16° 93° (E) 12:17:21 437.525
QB50P2 28 Sep 12:19:03 12:22:49 31° 263° (W) 12:26:34 145.880/145.840
PHONESAT 2.4 28 Sep 12:19:22 12:22:19 82° 352° (N) 12:25:16 2401.200-2431.200
POLYITAN 1 28 Sep 12:21:16 12:25:01 31° 263° (W) 12:28:46 437.675
HUMSAT D 28 Sep 12:21:34 12:24:07 16° 294° (WNW) 12:26:41 437.325/437.525
AISAT 28 Sep 12:22:16 12:26:25 39° 99° (E) 12:30:30 437.250
UKube-1 28 Sep 12:26:56 12:30:05 19° 94° (E) 12:33:12 .
YUBILEINY 28 Sep 12:35:56 12:41:12 17° 62° (ENE) 12:46:25 435.215
Gurwin Techsat 1B 28 Sep 12:54:16 12:58:01 20° 64° (ENE) 13:01:47 435.225
AUBIESAT-1 28 Sep 12:55:38 12:58:36 30° 103° (ESE) 13:01:35 437.475
DX 1 28 Sep 12:55:45 13:00:01 55° 101° (E) 13:04:15 434.975-435.025
BUGSAT 1 28 Sep 12:58:35 13:02:17 32° 262° (W) 13:05:59 437.445
DUCHIFAT 1 28 Sep 13:00:17 13:02:27 14° 268° (W) 13:04:39 145.980
QB50P1 28 Sep 13:04:00 13:05:18 11° 269° (W) 13:06:36 145.935-145.965
VELOX 1 28 Sep 13:05:41 13:10:04 70° 285° (WNW) 13:14:25 145.980
CUBEBUG 1 28 Sep 13:08:39 13:12:49 47° 287° (WNW) 13:16:57 437.445
ESTCUBE 1 28 Sep 13:09:05 13:13:07 32° 290° (WNW) 13:17:07 437.505/2401.250
